GW4489 Weather Reports


Display with metric or nautical units.
time (UTC)temp
F
wind
direction
speed
MPH
gust
MPH
rain 1hr
in
rain 24hr
in
rain mn
in
humidity
%
barometer
mb
20260507071008 52 332 0.0 0.0 0.00 0.39 0.02 96 1014.2
20260507070510 52 331 0.0 0.0 0.00 0.39 0.02 96 1014.1
20260507070028 52 331 0.0 0.0 0.00 0.39 0.02 95 1014.4
20260507065506 52 331 0.0 0.0 0.00 0.39 0.02 96 1014.4
20260507065011 52 331 0.0 0.0 0.00 0.39 0.02 95 1014.0
20260507064513 52 331 0.0 0.0 0.00 0.39 0.02 95 1014.0
20260507064006 52 331 0.0 3.0 0.01 0.39 0.02 95 1014.1
20260507063508 52 331 0.0 3.0 0.01 0.39 0.02 95 1014.0
20260507063020 52 331 1.0 3.0 0.01 0.39 0.02 96 1014.1
20260507062507 52 331 0.0 3.0 0.01 0.39 0.02 95 1014.4
20260507062006 52 331 1.0 3.0 0.01 0.39 0.02 95 1014.4
20260507061533 52 331 0.0 2.0 0.02 0.39 0.02 95 1014.5
20260507061012 52 331 1.0 3.0 0.02 0.39 0.02 95 1014.2
20260507060508 53 331 1.0 3.0 0.02 0.39 0.02 95 1014.3
20260507060036 53 331 0.0 2.0 0.02 0.39 0.02 95 1014.4
20260507055509 53 331 0.0 4.0 0.02 0.39 0.02 95 1014.5
20260507055006 53 331 0.0 4.0 0.02 0.39 0.02 95 1014.3
20260507054538 53 331 0.0 0.0 0.02 0.39 0.02 95 1014.6
20260507054009 53 331 0.0 0.0 0.01 0.38 0.01 95 1015.0
20260507053511 53 331 0.0 0.0 0.01 0.38 0.01 95 1015.1
20260507053031 53 331 0.0 0.0 0.01 0.38 0.01 95 1015.3
20260507052506 53 331 0.0 0.0 0.01 0.38 0.01 95 1015.3
20260507052007 53 331 0.0 0.0 0.01 0.38 0.01 95 1015.2
20260507051522 53 331 0.0 0.0 0.00 0.37 0.00 95 1015.4
20260507051011 53 331 0.0 0.0 0.00 0.37 0.00 95 1015.4
20260507050502 53 331 0.0 0.0 0.00 0.37 0.00 95 1015.6
20260507050011 53 331 0.0 0.0 0.00 0.37 0.00 95 1015.5
20260507045503 53 331 0.0 0.0 0.00 0.37 0.37 95 1015.3
20260507045003 53 331 0.0 1.0 0.00 0.37 0.37 95 1015.1
20260507044513 53 331 0.0 2.0 0.00 0.37 0.37 95 1015.2
20260507044003 53 331 1.0 2.0 0.00 0.37 0.37 95 1015.0
20260507043503 53 331 0.0 2.0 0.00 0.37 0.37 95 1015.0
20260507043016 53 331 0.0 2.0 0.00 0.37 0.37 95 1015.2
20260507042508 53 331 0.0 1.0 0.00 0.37 0.37 95 1015.0
20260507042007 53 331 0.0 2.0 0.00 0.37 0.37 95 1015.1
20260507041521 53 331 0.0 2.0 0.00 0.37 0.37 95 1014.9
20260507041006 53 331 0.0 3.0 0.00 0.37 0.37 95 1015.0
20260507040507 53 331 0.0 3.0 0.00 0.37 0.37 95 1015.1
20260507040025 53 331 1.0 4.0 0.00 0.37 0.37 95 1015.0
20260507035506 53 331 1.0 4.0 0.00 0.37 0.37 95 1014.8
20260507035005 53 330 1.0 4.0 0.00 0.37 0.37 95 1014.9
20260507034509 53 333 1.0 4.0 0.00 0.37 0.37 95 1014.9
20260507034005 53 333 1.0 3.0 0.00 0.37 0.37 95 1014.7
20260507033503 53 330 1.0 4.0 0.01 0.37 0.37 94 1014.8
20260507033020 53 330 1.0 5.0 0.01 0.37 0.37 94 1014.6
20260507032504 53 333 1.0 6.0 0.01 0.37 0.37 94 1014.7
20260507032003 53 331 2.0 6.0 0.02 0.37 0.37 94 1014.8
20260507031518 53 355 1.0 5.0 0.02 0.37 0.37 94 1014.9
20260507031006 53 328 1.0 5.0 0.02 0.37 0.37 94 1014.7
20260507030504 53 324 1.0 5.0 0.03 0.37 0.37 94 1014.8
20260507030022 53 338 2.0 4.0 0.04 0.37 0.37 94 1014.8
20260507025508 53 338 1.0 4.0 0.04 0.37 0.37 94 1014.7
20260507025013 53 348 1.0 4.0 0.04 0.37 0.37 94 1015.2
20260507024527 54 348 1.0 4.0 0.04 0.37 0.37 94 1015.1
20260507024006 54 334 1.0 4.0 0.04 0.37 0.37 94 1015.2
20260507023509 54 334 1.0 4.0 0.04 0.36 0.36 94 1015.4
20260507023025 54 334 2.0 4.0 0.04 0.36 0.36 94 1015.7
20260507022505 54 30 0.0 3.0 0.04 0.36 0.36 94 1015.5
20260507022005 54 30 0.0 5.0 0.03 0.35 0.35 94 1015.7
20260507021519 54 30 2.0 5.0 0.03 0.35 0.35 94 1015.5
20260507021003 54 286 0.0 4.0 0.03 0.35 0.35 94 1016.0
20260507020505 54 286 0.0 4.0 0.02 0.34 0.34 94 1016.3
20260507020023 54 286 1.0 3.0 0.01 0.34 0.33 94 1016.2
20260507015506 54 263 0.0 0.0 0.01 0.34 0.33 94 1015.5
20260507015006 54 259 0.0 3.0 0.01 0.34 0.33 94 1014.8
20260507014523 54 259 0.0 3.0 0.01 0.34 0.33 94 1015.0
20260507014010 54 259 1.0 3.0 0.01 0.34 0.33 94 1014.9
20260507013505 54 124 0.0 3.0 0.00 0.35 0.32 94 1015.0
20260507013030 54 123 1.0 2.0 0.00 0.42 0.32 94 1014.7
20260507012507 54 123 1.0 2.0 0.00 0.44 0.32 94 1014.5
20260507012010 54 124 0.0 3.0 0.00 0.44 0.32 93 1014.0
20260507011531 54 124 0.0 4.0 0.00 0.44 0.32 93 1013.5
20260507011005 54 124 2.0 4.0 0.00 0.46 0.32 93 1013.2
20260507010506 54 124 2.0 4.0 0.00 0.46 0.32 93 1013.1
20260507010028 54 124 0.0 6.0 0.00 0.46 0.32 93 1013.2
20260507005507 54 124 2.0 6.0 0.01 0.46 0.32 93 1013.4
20260507005012 54 124 1.0 5.0 0.01 0.46 0.32 93 1013.5
20260507004522 54 11 0.0 5.0 0.01 0.46 0.32 93 1013.3
20260507004006 54 207 2.0 5.0 0.02 0.46 0.32 93 1013.4
20260507003507 54 207 2.0 5.0 0.02 0.46 0.32 93 1013.7
20260507003022 54 207 0.0 4.0 0.02 0.46 0.32 93 1013.8
20260507002506 54 207 0.0 0.0 0.02 0.46 0.32 93 1014.0
20260507002008 54 207 0.0 0.0 0.02 0.46 0.32 93 1014.1
20260507001524 54 207 0.0 0.0 0.02 0.46 0.32 93 1014.6
20260507001007 54 207 0.0 0.0 0.02 0.46 0.32 93 1014.7
20260507000517 54 207 0.0 2.0 0.02 0.46 0.32 93 1014.5
20260507000032 54 207 0.0 3.0 0.02 0.46 0.32 93 1014.9
20260506235509 54 207 1.0 4.0 0.01 0.45 0.31 93 1014.9
20260506235007 54 207 0.0 5.0 0.01 0.45 0.31 93 1015.1
20260506234516 54 207 3.0 5.0 0.01 0.45 0.31 93 1015.8
20260506234006 54 295 2.0 4.0 0.00 0.44 0.30 93 1014.3
20260506233506 54 291 1.0 4.0 0.00 0.44 0.30 93 1014.3
20260506233020 54 257 0.0 3.0 0.00 0.44 0.30 93 1014.9
20260506232506 54 279 1.0 4.0 0.00 0.44 0.30 93 1014.1
20260506232008 55 279 2.0 5.0 0.00 0.44 0.30 93 1014.1
20260506231526 55 333 2.0 5.0 0.00 0.44 0.30 93 1013.8
20260506231007 55 9 1.0 3.0 0.00 0.44 0.30 93 1013.8
20260506230506 55 323 0.0 5.0 0.00 0.44 0.30 93 1014.3
20260506230026 55 323 2.0 5.0 0.00 0.44 0.30 93 1014.4
20260506225511 55 338 2.0 5.0 0.00 0.44 0.30 93 1014.5
20260506225010 55 327 1.0 4.0 0.00 0.44 0.30 93 1014.7
20260506224504 55 267 0.0 3.0 0.00 0.44 0.30 92 1014.5
20260506224001 55 267 0.0 2.0 0.00 0.44 0.30 92 1014.6
20260506223501 55 267 1.0 2.0 0.00 0.44 0.30 93 1014.4
20260506223003 55 313 0.0 2.0 0.00 0.44 0.30 93 1014.0
20260506222503 55 313 0.0 4.0 0.00 0.44 0.30 93 1013.9
20260506222006 55 313 0.0 4.0 0.00 0.44 0.30 92 1013.9
20260506221501 54 313 0.0 4.0 0.00 0.44 0.30 92 1014.1
20260506221003 55 313 1.0 4.0 0.00 0.44 0.30 92 1014.2
20260506220503 54 313 1.0 6.0 0.00 0.44 0.30 92 1014.4
20260506220014 55 246 1.0 6.0 0.00 0.44 0.30 92 1014.5
20260506215502 55 323 1.0 6.0 0.00 0.44 0.30 93 1014.4
20260506215006 55 323 2.0 9.0 0.00 0.44 0.30 92 1014.2
20260506214511 55 319 2.0 9.0 0.00 0.44 0.30 92 1014.1
20260506214006 55 329 3.0 9.0 0.00 0.44 0.30 92 1013.6
20260506213508 55 342 3.0 5.0 0.00 0.44 0.30 92 1013.2
20260506213020 55 338 1.0 4.0 0.00 0.44 0.30 93 1013.0
20260506212502 55 338 2.0 7.0 0.00 0.44 0.30 92 1013.2
20260506212003 55 5 3.0 7.0 0.00 0.44 0.30 92 1013.2
20260506211503 55 333 3.0 7.0 0.00 0.44 0.30 92 1013.4
20260506211003 55 304 2.0 5.0 0.00 0.44 0.30 92 1013.6
20260506210503 55 298 2.0 5.0 0.00 0.44 0.30 92 1013.8
20260506210006 55 340 2.0 5.0 0.00 0.44 0.30 92 1013.5
20260506205502 55 331 2.0 5.0 0.00 0.44 0.30 92 1013.3
20260506205002 55 328 2.0 5.0 0.00 0.44 0.30 92 1013.4
20260506204506 55 321 2.0 8.0 0.00 0.44 0.30 92 1013.7
20260506204008 55 342 2.0 8.0 0.00 0.44 0.30 93 1013.7
20260506203503 55 313 3.0 8.0 0.00 0.44 0.30 92 1013.6
20260506203022 56 346 3.0 7.0 0.00 0.44 0.30 93 1013.5
20260506202507 56 335 1.0 5.0 0.02 0.44 0.30 93 1013.4
20260506202005 56 304 1.0 5.0 0.02 0.44 0.30 93 1013.3
20260506201517 56 303 1.0 5.0 0.02 0.44 0.30 93 1012.9
20260506201008 56 340 2.0 8.0 0.02 0.44 0.30 93 1012.8
20260506200502 56 333 2.0 8.0 0.02 0.44 0.30 93 1013.3
20260506200004 56 335 3.0 8.0 0.02 0.44 0.30 93 1013.2
20260506195503 56 333 3.0 8.0 0.02 0.44 0.30 93 1013.1
20260506195002 56 328 2.0 10.0 0.02 0.44 0.30 93 1013.2
20260506194510 56 335 4.0 10.0 0.02 0.44 0.30 93 1013.1
20260506194002 56 350 3.0 5.0 0.02 0.44 0.30 93 1013.4
20260506193501 56 327 1.0 10.0 0.02 0.44 0.30 93 1013.5
20260506193015 56 334 2.0 10.0 0.02 0.44 0.30 93 1013.8
20260506192503 56 305 2.0 6.0 0.00 0.42 0.28 93 1014.0
20260506192006 56 312 2.0 5.0 0.00 0.42 0.28 93 1014.1
20260506191514 56 305 2.0 5.0 0.00 0.42 0.28 92 1014.0
20260506191006 57 298 1.0 5.0 0.00 0.42 0.28 92 1014.0
20260506190508 57 344 2.0 5.0 0.00 0.42 0.28 93 1013.9
20260506190021 57 302 1.0 7.0 0.00 0.42 0.28 92 1013.8
20260506185505 57 328 2.0 7.0 0.00 0.42 0.28 92 1013.8
20260506185011 57 318 1.0 8.0 0.00 0.42 0.28 92 1013.7
20260506184503 58 337 3.0 8.0 0.00 0.42 0.28 92 1013.4
20260506184004 58 293 1.0 5.0 0.00 0.42 0.28 92 1013.4
20260506183504 58 291 2.0 5.0 0.00 0.42 0.28 92 1013.3
20260506183006 58 290 1.0 5.0 0.00 0.42 0.28 92 1013.1
20260506182503 59 333 2.0 5.0 0.00 0.42 0.28 93 1013.1
20260506182007 59 323 2.0 5.0 0.00 0.42 0.28 92 1013.1
20260506181520 59 355 2.0 4.0 0.00 0.42 0.28 92 1013.2
20260506181006 59 348 0.0 5.0 0.00 0.42 0.28 92 1013.1
20260506180506 59 348 3.0 5.0 0.00 0.42 0.28 92 1013.1
20260506180017 59 274 0.0 4.0 0.00 0.42 0.28 92 1013.0
20260506175506 59 273 1.0 4.0 0.00 0.42 0.28 92 1013.1
20260506175007 59 273 1.0 4.0 0.00 0.42 0.28 93 1013.2
20260506174523 59 285 2.0 4.0 0.00 0.42 0.28 93 1013.3
20260506174008 60 234 1.0 4.0 0.00 0.42 0.28 93 1013.2
20260506173507 59 232 1.0 6.0 0.00 0.42 0.28 93 1013.1
20260506173024 59 232 3.0 6.0 0.00 0.42 0.28 92 1013.2
20260506172504 59 263 1.0 3.0 0.00 0.42 0.28 93 1013.2
20260506172004 59 263 1.0 3.0 0.00 0.42 0.28 93 1013.1
20260506171525 59 263 0.0 3.0 0.00 0.42 0.28 93 1013.3
20260506171003 59 263 0.0 4.0 0.00 0.42 0.28 93 1013.5
20260506170503 59 263 1.0 5.0 0.00 0.42 0.28 93 1013.3
20260506170014 59 231 2.0 5.0 0.00 0.42 0.28 93 1013.4
20260506165503 59 290 1.0 5.0 0.00 0.42 0.28 92 1013.4
20260506165006 59 257 2.0 4.0 0.00 0.42 0.28 93 1013.5
20260506164520 59 307 0.0 4.0 0.00 0.42 0.28 93 1013.1
20260506164008 59 306 2.0 4.0 0.00 0.42 0.28 93 1013.1
20260506163507 59 271 1.0 6.0 0.00 0.42 0.28 93 1013.0
20260506163024 59 271 0.0 6.0 0.00 0.42 0.28 92 1013.1
20260506162508 59 298 2.0 6.0 0.00 0.42 0.28 93 1013.3
20260506162010 59 280 1.0 7.0 0.00 0.42 0.28 92 1013.4
20260506161534 59 290 2.0 7.0 0.00 0.42 0.28 92 1013.4
20260506161003 59 246 0.0 7.0 0.00 0.42 0.28 92 1013.5
20260506160503 59 254 1.0 5.0 0.00 0.42 0.28 92 1013.4
20260506160010 59 294 1.0 4.0 0.00 0.42 0.28 93 1013.1
20260506155504 59 294 1.0 4.0 0.00 0.42 0.28 93 1013.0
20260506155003 59 294 1.0 5.0 0.00 0.42 0.28 92 1012.9
20260506154516 59 294 1.0 6.0 0.00 0.42 0.28 92 1012.8
20260506154006 59 302 2.0 6.0 0.00 0.42 0.28 92 1012.7
20260506153507 59 5 3.0 6.0 0.00 0.42 0.28 92 1012.7
20260506153020 59 12 2.0 6.0 0.00 0.42 0.28 92 1012.8
20260506152508 60 321 3.0 7.0 0.00 0.42 0.28 92 1012.7
20260506152012 60 289 2.0 7.0 0.00 0.42 0.28 91 1012.6
20260506151532 60 52 0.0 8.0 0.00 0.42 0.28 92 1012.5
20260506151010 60 343 3.0 8.0 0.01 0.42 0.28 91 1012.4
20260506150511 61 327 1.0 7.0 0.01 0.42 0.28 91 1012.3
20260506150032 61 301 2.0 10.0 0.03 0.42 0.28 91 1012.1
20260506145509 62 219 2.0 10.0 0.06 0.42 0.28 91 1011.9
20260506145005 64 252 4.0 10.0 0.08 0.42 0.28 91 1011.9
20260506144514 65 209 4.0 11.0 0.09 0.42 0.28 93 1011.7
20260506144009 65 199 3.0 11.0 0.09 0.42 0.28 93 1011.4
20260506143506 65 202 2.0 11.0 0.09 0.42 0.28 94 1010.6
20260506143035 65 195 3.0 11.0 0.09 0.42 0.28 94 1010.2
20260506142507 64 175 3.0 7.0 0.09 0.42 0.28 94 1010.1
20260506142007 63 214 1.0 4.0 0.09 0.42 0.28 91 1010.2
20260506141522 62 214 0.0 4.0 0.09 0.42 0.28 90 1010.3
20260506141008 62 214 1.0 5.0 0.08 0.41 0.27 90 1010.5
20260506140506 63 214 2.0 5.0 0.08 0.41 0.27 89 1011.4
20260506140033 64 296 2.0 6.0 0.06 0.39 0.25 89 1011.8
20260506135507 64 292 1.0 10.0 0.03 0.36 0.22 90 1012.3
20260506135010 64 209 3.0 10.0 0.01 0.34 0.20 90 1012.1
20260506134509 64 192 4.0 11.0 0.00 0.33 0.19 90 1012.1
20260506134003 65 227 6.0 12.0 0.00 0.33 0.19 90 1012.0
20260506133506 65 221 5.0 15.0 0.00 0.33 0.19 90 1011.9
20260506133018 65 204 7.0 15.0 0.00 0.33 0.19 90 1011.7
20260506132509 64 202 6.0 15.0 0.00 0.33 0.19 90 1011.7
20260506132008 64 218 4.0 14.0 0.00 0.33 0.19 90 1011.6
20260506131503 64 171 5.0 14.0 0.00 0.33 0.19 90 1011.6
20260506131002 64 192 4.0 14.0 0.00 0.33 0.19 90 1011.4
20260506130503 64 188 4.0 12.0 0.00 0.33 0.19 91 1011.5
20260506130005 64 196 6.0 12.0 0.00 0.33 0.19 91 1011.4
20260506125503 64 207 6.0 13.0 0.00 0.33 0.19 91 1011.4
20260506125003 64 196 7.0 13.0 0.00 0.33 0.19 91 1011.3
20260506124506 64 198 6.0 11.0 0.00 0.33 0.19 91 1011.2
20260506124002 64 203 6.0 11.0 0.01 0.33 0.19 91 1011.1
20260506123503 64 195 5.0 11.0 0.01 0.33 0.19 91 1011.1
20260506123012 64 207 5.0 14.0 0.01 0.33 0.19 91 1011.0
20260506122507 64 190 7.0 14.0 0.02 0.33 0.19 91 1010.5
20260506122012 64 207 4.0 12.0 0.04 0.33 0.19 91 1010.4
20260506121520 64 203 5.0 15.0 0.05 0.33 0.19 91 1010.2
20260506121006 64 211 6.0 22.0 0.05 0.33 0.19 91 1010.1
20260506120512 64 211 8.0 22.0 0.07 0.33 0.19 91 1010.2
20260506120024 64 209 8.0 18.0 0.07 0.33 0.19 91 1010.3
20260506115503 64 199 9.0 17.0 0.07 0.33 0.19 91 1010.1
20260506115002 64 138 6.0 19.0 0.07 0.33 0.19 91 1009.9
20260506114505 64 200 7.0 19.0 0.08 0.33 0.19 91 1010.0
20260506114003 63 215 6.0 19.0 0.08 0.32 0.18 91 1009.8
20260506113503 63 183 9.0 19.0 0.09 0.32 0.18 91 1009.7
20260506113012 63 206 1.0 10.0 0.11 0.32 0.18 90 1009.8
20260506112502 63 206 3.0 10.0 0.10 0.31 0.17 90 1010.3
20260506112005 63 215 2.0 5.0 0.09 0.29 0.15 90 1010.3
20260506111515 64 215 3.0 5.0 0.10 0.28 0.14 90 1009.9
20260506111004 64 215 0.0 4.0 0.12 0.28 0.14 90 1010.6
20260506110511 64 215 1.0 5.0 0.11 0.26 0.12 90 1010.8
20260506110022 64 215 0.0 5.0 0.11 0.26 0.12 89 1010.6
20260506105507 64 215 1.0 6.0 0.12 0.26 0.12 89 1010.4
20260506105010 64 215 2.0 10.0 0.12 0.26 0.12 89 1010.3
20260506104527 64 215 4.0 10.0 0.11 0.25 0.11 88 1010.4
20260506104005 64 225 4.0 9.0 0.10 0.24 0.10 88 1010.3
20260506103502 64 205 3.0 11.0 0.09 0.23 0.09 88 1009.8
20260506103014 64 187 2.0 11.0 0.07 0.21 0.07 87 1009.7
20260506102502 64 192 5.0 13.0 0.07 0.21 0.07 86 1009.8
20260506102002 65 166 4.0 15.0 0.06 0.20 0.06 85 1009.7
20260506101523 65 203 6.0 15.0 0.04 0.18 0.04 84 1009.6
20260506101006 65 196 5.0 15.0 0.02 0.16 0.02 83 1009.7
20260506100508 66 198 9.0 20.0 0.01 0.15 0.01 82 1009.9
20260506100018 66 227 7.0 20.0 0.01 0.15 0.01 81 1009.8
20260506095507 67 183 10.0 19.0 0.00 0.14 0.00 80 1009.3
20260506095006 67 182 8.0 17.0 0.00 0.14 0.00 78 1008.9
20260506094524 68 194 8.0 17.0 0.00 0.14 0.00 76 1008.8
20260506094007 68 195 7.0 20.0 0.00 0.14 0.00 75 1008.9
20260506093512 68 161 10.0 20.0 0.00 0.14 0.00 75 1008.8
20260506093026 68 253 9.0 19.0 0.00 0.14 0.00 74 1008.6
20260506092508 68 195 9.0 19.0 0.00 0.14 0.00 74 1008.5
20260506092010 68 175 7.0 16.0 0.00 0.14 0.00 73 1008.3
20260506091510 69 218 6.0 16.0 0.00 0.14 0.00 73 1008.2
20260506091007 68 219 5.0 18.0 0.00 0.14 0.00 73 1008.4
20260506090504 69 159 11.0 21.0 0.00 0.14 0.00 72 1008.4
20260506090017 69 182 7.0 21.0 0.00 0.14 0.00 72 1008.3
20260506085506 69 186 12.0 21.0 0.00 0.14 0.00 71 1008.1
20260506085009 70 181 9.0 23.0 0.00 0.14 0.00 69 1008.2
20260506084528 70 200 15.0 22.0 0.00 0.14 0.00 68 1008.2
20260506084007 70 212 6.0 16.0 0.00 0.14 0.00 68 1008.2
20260506083507 69 164 6.0 16.0 0.00 0.14 0.00 68 1008.0
20260506083026 70 202 4.0 16.0 0.00 0.14 0.00 68 1007.9
20260506082507 70 173 5.0 16.0 0.00 0.14 0.00 68 1007.8
20260506082009 69 205 8.0 17.0 0.00 0.14 0.00 68 1007.9
20260506081526 69 199 8.0 19.0 0.00 0.14 0.00 67 1007.9
20260506081013 69 202 9.0 19.0 0.00 0.14 0.00 67 1007.9
20260506080516 69 169 8.0 18.0 0.00 0.14 0.00 66 1007.9
20260506073507 69 205 4.0 15.0 0.00 0.14 0.00 66 1007.6
20260506073023 69 196 5.0 12.0 0.00 0.14 0.00 66 1007.8
20260506072512 69 192 6.0 16.0 0.00 0.14 0.00 65 1007.7
20260506072008 69 205 9.0 16.0 0.00 0.14 0.00 65 1007.7
20260506071528 69 121 6.0 16.0 0.00 0.14 0.00 66 1007.9